20060221,000008,1474500,35.642800,-121.265500,NaN,11.800,33.500,38.270,  NaN,NaN,0.566, NaN, NaN,13.200, NaN,   NaN,10.90,1022.31,65.30,NaN,348.0,NaN,9.6,NaN,291.1,NaN,18.6,NaN,NaN,0.566,NaN,316.0,NaN,NaN,NaN,2,0.8,000006,   NaN,303.6,     NaN,      NaN,NaN,1.8,NaN, NaN,0.230,NaN,NaN, NaN, NaN
20060221,000038,1474530,35.643000,-121.265700,NaN,11.800,33.500,38.270,  NaN,NaN,0.543, NaN, NaN,13.200, NaN,   NaN,10.90,1022.32,64.40,NaN,355.0,NaN,9.9,NaN,300.3,NaN,19.2,NaN,NaN,0.543,NaN,319.0,NaN,NaN,NaN,2,0.9,000036,   NaN,305.5,     NaN,      NaN,NaN,1.9,NaN, NaN,0.234,NaN,NaN, NaN, NaN
20060221,000108,1474560,35.643000,-121.265700,NaN,11.810,33.490,38.280,  NaN,NaN,0.567, NaN, NaN,13.200, NaN,   NaN,10.90,1022.30,62.30,NaN,351.0,NaN,9.8,NaN,298.3,NaN,19.1,NaN,NaN,0.567,NaN,323.0,NaN,NaN,NaN,2,0.7,000106,   NaN,307.7,     NaN,      NaN,NaN,1.8,NaN, NaN,0.264,NaN,NaN, NaN, NaN
20060221,000138,1474590,35.643000,-121.265800,NaN,11.820,33.500,38.280,  NaN,NaN,0.541, NaN, NaN,13.200, NaN,   NaN,10.90,1022.29,61.60,NaN,351.0,NaN,9.8,NaN,296.7,NaN,19.0,NaN,NaN,0.541,NaN,326.0,NaN,NaN,NaN,2,0.6,000136,   NaN,306.0,     NaN,      NaN,NaN,1.8,NaN, NaN,0.210,NaN,NaN, NaN, NaN
20060221,000208,1474620,35.643200,-121.265800,NaN,11.810,33.500,38.280,  NaN,NaN,0.549, NaN, NaN,13.200, NaN,   NaN,10.90,1022.34,60.90,NaN,16.0,NaN,9.7,NaN,304.4,NaN,18.9,NaN,NaN,0.549,NaN,299.0,NaN,NaN,NaN,2,0.9,000206,   NaN,287.4,     NaN,      NaN,NaN,2.0,NaN, NaN,0.243,NaN,NaN, NaN, NaN
20060221,000238,1474650,35.643200,-121.266000,NaN,11.810,33.500,38.280,  NaN,NaN,0.541, NaN, NaN,13.300, NaN,   NaN,10.80,1022.27,62.10,NaN,38.0,NaN,11.0,NaN,292.9,NaN,21.3,NaN,NaN,0.541,NaN,254.0,NaN,NaN,NaN,2,1.0,000236,   NaN,252.9,     NaN,      NaN,NaN,2.0,NaN, NaN,0.206,NaN,NaN, NaN, NaN
20060221,000308,1474680,35.643300,-121.266300,NaN,11.810,33.500,38.280,  NaN,NaN,0.531, NaN, NaN,13.200, NaN,   NaN,10.70,1022.23,63.10,NaN,69.0,NaN,10.2,NaN,306.2,NaN,19.8,NaN,NaN,0.531,NaN,210.0,NaN,NaN,NaN,2,1.4,000306,   NaN,233.3,     NaN,      NaN,NaN,2.2,NaN, NaN,0.207,NaN,NaN, NaN, NaN
20060221,000338,1474710,35.643000,-121.266500,NaN,11.810,33.500,38.280,  NaN,NaN,0.551, NaN, NaN,13.200, NaN,   NaN,10.50,1022.30,64.00,NaN,62.0,NaN,9.2,NaN,299.4,NaN,17.8,NaN,NaN,0.551,NaN,197.0,NaN,NaN,NaN,2,1.8,000336,   NaN,232.3,     NaN,      NaN,NaN,2.9,NaN, NaN,0.213,NaN,NaN, NaN, NaN
20060221,000408,1474740,35.642800,-121.266700,NaN,11.790,33.500,38.260,  NaN,NaN,0.645, NaN, NaN,13.200, NaN,   NaN,10.50,1022.22,64.40,NaN,60.0,NaN,10.1,NaN,298.8,NaN,19.6,NaN,NaN,0.645,NaN,203.0,NaN,NaN,NaN,2,2.1,000406,   NaN,233.5,     NaN,      NaN,NaN,3.4,NaN, NaN,1.313,NaN,NaN, NaN, NaN
20060221,000438,1474770,35.642500,-121.266800,NaN,11.800,33.500,38.260,  NaN,NaN,0.656, NaN, NaN,13.200, NaN,   NaN,10.50,1022.21,67.30,NaN,67.0,NaN,10.5,NaN,307.9,NaN,20.3,NaN,NaN,0.656,NaN,210.0,NaN,NaN,NaN,2,2.2,000436,   NaN,235.2,     NaN,      NaN,NaN,3.6,NaN, NaN,0.423,NaN,NaN, NaN, NaN
20060221,000508,1474800,35.642300,-121.267000,NaN,11.790,33.500,38.270,  NaN,NaN,0.604, NaN, NaN,13.200, NaN,   NaN,10.70,1022.22,69.10,NaN,61.0,NaN,10.3,NaN,303.4,NaN,20.1,NaN,NaN,0.604,NaN,210.0,NaN,NaN,NaN,2,2.3,000506,   NaN,236.7,     NaN,      NaN,NaN,3.7,NaN, NaN,0.391,NaN,NaN, NaN, NaN
20060221,000538,1474830,35.642000,-121.267300,NaN,11.800,33.500,38.270,  NaN,NaN,0.625, NaN, NaN,13.200, NaN,   NaN,10.50,1022.16,66.40,NaN,57.0,NaN,11.0,NaN,300.1,NaN,21.3,NaN,NaN,0.625,NaN,213.0,NaN,NaN,NaN,2,2.3,000536,   NaN,237.9,     NaN,      NaN,NaN,3.9,NaN, NaN,0.241,NaN,NaN, NaN, NaN
20060221,000608,1474860,35.641800,-121.267500,NaN,11.800,33.500,38.270,  NaN,NaN,0.627, NaN, NaN,13.200, NaN,   NaN,10.50,1022.19,68.10,NaN,55.0,NaN,10.2,NaN,300.5,NaN,19.9,NaN,NaN,0.627,NaN,215.0,NaN,NaN,NaN,2,2.3,000606,   NaN,240.1,     NaN,      NaN,NaN,4.1,NaN, NaN,0.227,NaN,NaN, NaN, NaN
20060221,000638,1474890,35.641500,-121.267700,NaN,11.800,33.500,38.270,  NaN,NaN,0.621, NaN, NaN,13.300, NaN,   NaN,10.50,1022.22,68.10,NaN,63.0,NaN,11.0,NaN,310.3,NaN,21.3,NaN,NaN,0.621,NaN,216.0,NaN,NaN,NaN,2,2.4,000636,   NaN,241.5,     NaN,      NaN,NaN,4.1,NaN, NaN,0.233,NaN,NaN, NaN, NaN
20060221,000708,1474920,35.641300,-121.268000,NaN,11.800,33.500,38.270,  NaN,NaN,0.661, NaN, NaN,13.200, NaN,   NaN,10.50,1022.14,71.10,NaN,56.0,NaN,10.7,NaN,304.6,NaN,20.8,NaN,NaN,0.661,NaN,217.0,NaN,NaN,NaN,2,2.5,000706,   NaN,242.8,     NaN,      NaN,NaN,3.8,NaN, NaN,0.637,NaN,NaN, NaN, NaN
20060221,000738,1474950,35.641000,-121.268300,NaN,11.760,33.510,38.250,  NaN,NaN,0.668, NaN, NaN,13.200, NaN,   NaN,10.40,1022.18,68.60,NaN,50.0,NaN,11.3,NaN,297.6,NaN,22.0,NaN,NaN,0.668,NaN,221.0,NaN,NaN,NaN,2,2.4,000736,   NaN,242.8,     NaN,      NaN,NaN,4.1,NaN, NaN,0.575,NaN,NaN, NaN, NaN
20060221,000808,1474980,35.640800,-121.268500,NaN,11.740,33.510,38.230,  NaN,NaN,0.667, NaN, NaN,13.200, NaN,   NaN,10.40,1022.19,69.10,NaN,53.0,NaN,10.3,NaN,302.2,NaN,19.9,NaN,NaN,0.667,NaN,225.0,NaN,NaN,NaN,2,2.4,000806,   NaN,243.7,     NaN,      NaN,NaN,4.0,NaN, NaN,0.792,NaN,NaN, NaN, NaN
20060221,000838,1475010,35.640700,-121.268800,NaN,11.730,33.500,38.210,  NaN,NaN,0.648, NaN, NaN,13.100, NaN,   NaN,10.40,1022.17,68.90,NaN,51.0,NaN,10.4,NaN,299.4,NaN,20.1,NaN,NaN,0.648,NaN,223.0,NaN,NaN,NaN,2,2.5,000836,   NaN,242.9,     NaN,      NaN,NaN,3.8,NaN, NaN,0.252,NaN,NaN, NaN, NaN
20060221,000908,1475040,35.640300,-121.269200,NaN,11.690,33.510,38.180,  NaN,NaN,0.660, NaN, NaN,13.200, NaN,   NaN,10.50,1022.18,70.00,NaN,52.0,NaN,10.8,NaN,299.7,NaN,20.9,NaN,NaN,0.660,NaN,223.0,NaN,NaN,NaN,2,2.7,000906,   NaN,241.9,     NaN,      NaN,NaN,3.9,NaN, NaN,0.255,NaN,NaN, NaN, NaN
20060221,000938,1475070,35.640200,-121.269500,NaN,11.660,33.510,38.150,  NaN,NaN,0.653, NaN, NaN,13.100, NaN,   NaN,10.50,1022.23,69.50,NaN,53.0,NaN,12.2,NaN,299.0,NaN,23.6,NaN,NaN,0.653,NaN,218.0,NaN,NaN,NaN,2,2.8,000936,   NaN,240.5,     NaN,      NaN,NaN,4.2,NaN, NaN,0.273,NaN,NaN, NaN, NaN
20060221,001008,1475100,35.639800,-121.269800,NaN,11.630,33.510,38.120,  NaN,NaN,1.372, NaN, NaN,13.000, NaN,   NaN,10.40,1022.12,66.90,NaN,57.0,NaN,11.8,NaN,302.0,NaN,22.9,NaN,NaN,1.372,NaN,219.0,NaN,NaN,NaN,2,2.8,001006,   NaN,239.1,     NaN,      NaN,NaN,4.4,NaN, NaN,24.270,NaN,NaN, NaN, NaN
20060221,001038,1475130,35.639500,-121.270200,NaN,11.600,33.500,38.090,  NaN,NaN,0.677, NaN, NaN,13.100, NaN,   NaN,10.40,1022.17,65.30,NaN,60.0,NaN,10.9,NaN,305.3,NaN,21.2,NaN,NaN,0.677,NaN,216.0,NaN,NaN,NaN,2,2.8,001036,   NaN,238.7,     NaN,      NaN,NaN,4.3,NaN, NaN,0.872,NaN,NaN, NaN, NaN
20060221,001108,1475160,35.639300,-121.270500,NaN,11.600,33.510,38.090,  NaN,NaN,0.695, NaN, NaN,13.000, NaN,   NaN,10.50,1022.23,69.20,NaN,49.0,NaN,10.3,NaN,295.7,NaN,20.1,NaN,NaN,0.695,NaN,222.0,NaN,NaN,NaN,2,2.5,001106,   NaN,241.3,     NaN,      NaN,NaN,3.9,NaN, NaN,0.765,NaN,NaN, NaN, NaN
20060221,001138,1475190,35.639000,-121.270800,NaN,11.580,33.500,38.070,  NaN,NaN,0.659, NaN, NaN,13.000, NaN,   NaN,10.50,1022.19,68.50,NaN,49.0,NaN,10.1,NaN,294.1,NaN,19.7,NaN,NaN,0.659,NaN,227.0,NaN,NaN,NaN,2,3.1,001136,   NaN,238.3,     NaN,      NaN,NaN,4.7,NaN, NaN,0.339,NaN,NaN, NaN, NaN
20060221,001208,1475220,35.638700,-121.271300,NaN,11.560,33.520,38.070,  NaN,NaN,0.679, NaN, NaN,13.000, NaN,   NaN,10.50,1022.12,68.60,NaN,52.0,NaN,9.6,NaN,295.7,NaN,18.6,NaN,NaN,0.679,NaN,226.0,NaN,NaN,NaN,2,3.9,001206,   NaN,234.2,     NaN,      NaN,NaN,5.5,NaN, NaN,0.218,NaN,NaN, NaN, NaN
20060221,001238,1475250,35.638300,-121.271800,NaN,11.550,33.510,38.050,  NaN,NaN,0.667, NaN, NaN,13.000, NaN,   NaN,10.50,1022.06,69.20,NaN,62.0,NaN,11.4,NaN,303.0,NaN,22.1,NaN,NaN,0.667,NaN,222.0,NaN,NaN,NaN,2,4.3,001236,   NaN,231.1,     NaN,      NaN,NaN,6.2,NaN, NaN,0.302,NaN,NaN, NaN, NaN
20060221,001308,1475280,35.637800,-121.272300,NaN,11.550,33.500,38.040,  NaN,NaN,0.622, NaN, NaN,13.000, NaN,   NaN,10.50,1022.10,68.70,NaN,59.0,NaN,9.9,NaN,301.3,NaN,19.3,NaN,NaN,0.622,NaN,221.0,NaN,NaN,NaN,2,4.6,001306,   NaN,230.5,     NaN,      NaN,NaN,6.7,NaN, NaN,0.333,NaN,NaN, NaN, NaN
20060221,001338,1475310,35.637300,-121.272800,NaN,11.550,33.500,38.040,  NaN,NaN,0.616, NaN, NaN,13.000, NaN,   NaN,10.50,1022.08,66.80,NaN,63.0,NaN,11.1,NaN,304.0,NaN,21.6,NaN,NaN,0.616,NaN,223.0,NaN,NaN,NaN,2,4.7,001336,   NaN,229.8,     NaN,      NaN,NaN,6.8,NaN, NaN,0.892,NaN,NaN, NaN, NaN
20060221,001408,1475340,35.636800,-121.273300,NaN,11.560,33.490,38.050,  NaN,NaN,0.632, NaN, NaN,13.000, NaN,   NaN,10.50,1022.06,71.00,NaN,54.0,NaN,10.1,NaN,297.0,NaN,19.7,NaN,NaN,0.632,NaN,225.0,NaN,NaN,NaN,2,4.8,001406,   NaN,231.6,     NaN,      NaN,NaN,6.7,NaN, NaN,0.977,NaN,NaN, NaN, NaN
20060221,001438,1475370,35.636500,-121.274000,NaN,11.580,33.490,38.060,  NaN,NaN,0.695, NaN, NaN,13.000, NaN,   NaN,10.50,1022.07,68.30,NaN,68.0,NaN,10.4,NaN,315.1,NaN,20.3,NaN,NaN,0.695,NaN,226.0,NaN,NaN,NaN,2,4.9,001436,   NaN,234.1,     NaN,      NaN,NaN,6.7,NaN, NaN,3.489,NaN,NaN, NaN, NaN
20060221,001508,1475400,35.636000,-121.274700,NaN,11.580,33.500,38.070,  NaN,NaN,0.679, NaN, NaN,13.000, NaN,   NaN,10.50,1022.05,68.10,NaN,55.0,NaN,10.1,NaN,301.1,NaN,19.7,NaN,NaN,0.679,NaN,227.0,NaN,NaN,NaN,2,5.0,001506,   NaN,234.1,     NaN,      NaN,NaN,6.7,NaN, NaN,2.533,NaN,NaN, NaN, NaN
20060221,001538,1475430,35.635500,-121.275200,NaN,11.580,33.500,38.070,  NaN,NaN,0.916, NaN, NaN,13.000, NaN,   NaN,10.40,1022.06,66.70,NaN,53.0,NaN,11.2,NaN,298.1,NaN,21.7,NaN,NaN,0.916,NaN,225.0,NaN,NaN,NaN,2,4.9,001536,   NaN,234.7,     NaN,      NaN,NaN,6.9,NaN, NaN,7.773,NaN,NaN, NaN, NaN
20060221,001608,1475460,35.635000,-121.275800,NaN,11.580,33.500,38.070,  NaN,NaN,1.285, NaN, NaN,13.000, NaN,   NaN,10.50,1022.09,66.90,NaN,56.0,NaN,10.9,NaN,303.3,NaN,21.1,NaN,NaN,1.285,NaN,228.0,NaN,NaN,NaN,2,4.9,001606,   NaN,236.2,     NaN,      NaN,NaN,7.0,NaN, NaN,20.670,NaN,NaN, NaN, NaN
20060221,001638,1475490,35.634700,-121.276500,NaN,11.570,33.510,38.060,  NaN,NaN,0.640, NaN, NaN,13.000, NaN,   NaN,10.50,1022.03,69.60,NaN,64.0,NaN,11.8,NaN,312.1,NaN,23.0,NaN,NaN,0.640,NaN,231.0,NaN,NaN,NaN,2,4.9,001636,   NaN,237.1,     NaN,      NaN,NaN,7.0,NaN, NaN,2.079,NaN,NaN, NaN, NaN
20060221,001708,1475520,35.634200,-121.277200,NaN,11.580,33.500,38.070,  NaN,NaN,0.588, NaN, NaN,13.000, NaN,   NaN,10.70,1022.03,70.30,NaN,49.0,NaN,10.4,NaN,298.1,NaN,20.1,NaN,NaN,0.588,NaN,232.0,NaN,NaN,NaN,2,4.9,001706,   NaN,238.5,     NaN,      NaN,NaN,7.0,NaN, NaN,0.351,NaN,NaN, NaN, NaN
20060221,001738,1475550,35.633800,-121.277800,NaN,11.580,33.500,38.070,  NaN,NaN,0.586, NaN, NaN,13.000, NaN,   NaN,10.50,1022.10,68.20,NaN,59.0,NaN,11.5,NaN,308.3,NaN,22.4,NaN,NaN,0.586,NaN,230.0,NaN,NaN,NaN,2,4.9,001736,   NaN,238.5,     NaN,      NaN,NaN,7.0,NaN, NaN,0.729,NaN,NaN, NaN, NaN
20060221,001808,1475580,35.633300,-121.278500,NaN,11.580,33.500,38.070,  NaN,NaN,0.581, NaN, NaN,13.000, NaN,   NaN,10.50,1022.02,70.00,NaN,53.0,NaN,12.1,NaN,301.2,NaN,23.5,NaN,NaN,0.581,NaN,229.0,NaN,NaN,NaN,2,5.0,001806,   NaN,238.4,     NaN,      NaN,NaN,7.1,NaN, NaN,0.255,NaN,NaN, NaN, NaN
20060221,001838,1475610,35.633000,-121.279200,NaN,11.570,33.510,38.070,  NaN,NaN,0.584, NaN, NaN,13.000, NaN,   NaN,10.40,1022.04,67.40,NaN,51.0,NaN,11.1,NaN,299.3,NaN,21.6,NaN,NaN,0.584,NaN,230.0,NaN,NaN,NaN,2,4.9,001836,   NaN,238.1,     NaN,      NaN,NaN,7.0,NaN, NaN,0.633,NaN,NaN, NaN, NaN
20060221,001908,1475640,35.632500,-121.279800,NaN,11.570,33.510,38.060,  NaN,NaN,0.614, NaN, NaN,13.000, NaN,   NaN,10.50,1022.12,69.90,NaN,50.0,NaN,11.2,NaN,298.0,NaN,21.8,NaN,NaN,0.614,NaN,230.0,NaN,NaN,NaN,2,5.0,001906,   NaN,237.9,     NaN,      NaN,NaN,6.9,NaN, NaN,0.800,NaN,NaN, NaN, NaN
20060221,001938,1475670,35.632200,-121.280500,NaN,11.560,33.510,38.060,  NaN,NaN,0.599, NaN, NaN,13.000, NaN,   NaN,10.50,1022.09,69.60,NaN,54.0,NaN,10.1,NaN,303.1,NaN,19.7,NaN,NaN,0.599,NaN,232.0,NaN,NaN,NaN,2,4.8,001936,   NaN,237.7,     NaN,      NaN,NaN,7.1,NaN, NaN,0.245,NaN,NaN, NaN, NaN
20060221,002008,1475700,35.631700,-121.281000,NaN,11.560,33.510,38.050,  NaN,NaN,0.582, NaN, NaN,13.000, NaN,   NaN,10.50,1022.04,72.30,NaN,44.0,NaN,10.2,NaN,292.9,NaN,19.8,NaN,NaN,0.582,NaN,232.0,NaN,NaN,NaN,2,4.9,002006,   NaN,239.0,     NaN,      NaN,NaN,7.0,NaN, NaN,0.333,NaN,NaN, NaN, NaN
20060221,002038,1475730,35.631300,-121.281700,NaN,11.550,33.510,38.050,  NaN,NaN,0.557, NaN, NaN,13.000, NaN,   NaN,10.70,1022.06,70.80,NaN,50.0,NaN,10.4,NaN,299.7,NaN,20.3,NaN,NaN,0.557,NaN,232.0,NaN,NaN,NaN,2,4.8,002036,   NaN,239.2,     NaN,      NaN,NaN,7.1,NaN, NaN,0.261,NaN,NaN, NaN, NaN
20060221,002108,1475760,35.631000,-121.282300,NaN,11.550,33.510,38.050,  NaN,NaN,0.576, NaN, NaN,13.000, NaN,   NaN,10.70,1022.09,72.00,NaN,53.0,NaN,9.4,NaN,304.5,NaN,18.3,NaN,NaN,0.576,NaN,234.0,NaN,NaN,NaN,2,4.9,002106,   NaN,239.1,     NaN,      NaN,NaN,7.1,NaN, NaN,0.339,NaN,NaN, NaN, NaN
20060221,002138,1475790,35.630500,-121.283200,NaN,11.550,33.510,38.050,  NaN,NaN,0.571, NaN, NaN,13.000, NaN,   NaN,10.50,1022.12,67.40,NaN,48.0,NaN,10.7,NaN,298.0,NaN,20.9,NaN,NaN,0.571,NaN,236.0,NaN,NaN,NaN,2,4.8,002136,   NaN,240.2,     NaN,      NaN,NaN,7.3,NaN, NaN,0.218,NaN,NaN, NaN, NaN
20060221,002208,1475820,35.630200,-121.283800,NaN,11.540,33.510,38.050,  NaN,NaN,0.579, NaN, NaN,13.000, NaN,   NaN,10.70,1022.02,70.60,NaN,53.0,NaN,11.0,NaN,304.0,NaN,21.5,NaN,NaN,0.579,NaN,236.0,NaN,NaN,NaN,2,4.8,002206,   NaN,240.7,     NaN,      NaN,NaN,7.1,NaN, NaN,0.253,NaN,NaN, NaN, NaN
20060221,002238,1475850,35.629800,-121.284500,NaN,11.550,33.510,38.050,  NaN,NaN,0.578, NaN, NaN,13.000, NaN,   NaN,10.50,1022.00,67.70,NaN,48.0,NaN,11.2,NaN,298.6,NaN,21.8,NaN,NaN,0.578,NaN,237.0,NaN,NaN,NaN,2,4.8,002236,   NaN,241.2,     NaN,      NaN,NaN,7.2,NaN, NaN,0.478,NaN,NaN, NaN, NaN
20060221,002308,1475880,35.629500,-121.285200,NaN,11.540,33.510,38.040,  NaN,NaN,0.553, NaN, NaN,13.000, NaN,   NaN,10.50,1022.01,70.40,NaN,48.0,NaN,11.5,NaN,298.6,NaN,22.3,NaN,NaN,0.553,NaN,236.0,NaN,NaN,NaN,2,4.7,002306,   NaN,241.6,     NaN,      NaN,NaN,7.1,NaN, NaN,0.225,NaN,NaN, NaN, NaN
20060221,002338,1475910,35.629000,-121.285800,NaN,11.540,33.510,38.040,  NaN,NaN,0.581, NaN, NaN,13.000, NaN,   NaN,10.70,1022.00,69.90,NaN,42.0,NaN,10.1,NaN,292.7,NaN,19.6,NaN,NaN,0.581,NaN,237.0,NaN,NaN,NaN,2,5.4,002336,   NaN,240.1,     NaN,      NaN,NaN,7.6,NaN, NaN,0.530,NaN,NaN, NaN, NaN
20060221,002408,1475940,35.628500,-121.286800,NaN,11.560,33.500,38.050,  NaN,NaN,0.583, NaN, NaN,13.000, NaN,   NaN,10.50,1022.00,70.10,NaN,43.0,NaN,10.6,NaN,294.2,NaN,20.6,NaN,NaN,0.583,NaN,233.0,NaN,NaN,NaN,2,7.9,002406,   NaN,236.1,     NaN,      NaN,NaN,10.8,NaN, NaN,0.308,NaN,NaN, NaN, NaN
20060221,002438,1475970,35.627800,-121.288000,NaN,11.570,33.500,38.060,  NaN,NaN,0.835, NaN, NaN,13.000, NaN,   NaN,10.70,1022.03,68.70,NaN,48.0,NaN,12.8,NaN,297.2,NaN,24.9,NaN,NaN,0.835,NaN,233.0,NaN,NaN,NaN,2,8.8,002436,   NaN,234.0,     NaN,      NaN,NaN,12.1,NaN, NaN,6.449,NaN,NaN, NaN, NaN
20060221,002508,1476000,35.627000,-121.289200,NaN,11.590,33.500,38.080,  NaN,NaN,0.602, NaN, NaN,13.000, NaN,   NaN,10.50,1021.95,68.70,NaN,44.0,NaN,11.1,NaN,297.6,NaN,21.5,NaN,NaN,0.602,NaN,234.0,NaN,NaN,NaN,2,9.3,002506,   NaN,236.1,     NaN,      NaN,NaN,12.4,NaN, NaN,0.820,NaN,NaN, NaN, NaN
20060221,002538,1476030,35.626300,-121.290500,NaN,11.710,33.420,38.110,  NaN,NaN,0.559, NaN, NaN,13.000, NaN,   NaN,10.70,1021.95,68.00,NaN,44.0,NaN,11.3,NaN,299.5,NaN,21.9,NaN,NaN,0.559,NaN,234.0,NaN,NaN,NaN,2,9.4,002536,   NaN,238.2,     NaN,      NaN,NaN,12.6,NaN, NaN,0.412,NaN,NaN, NaN, NaN
20060221,002608,1476060,35.625500,-121.291800,NaN,11.870,33.440,38.270,  NaN,NaN,0.535, NaN, NaN,13.100, NaN,   NaN,10.70,1022.02,67.70,NaN,38.0,NaN,11.5,NaN,295.9,NaN,22.3,NaN,NaN,0.535,NaN,237.0,NaN,NaN,NaN,2,9.4,002606,   NaN,242.8,     NaN,      NaN,NaN,12.7,NaN, NaN,0.375,NaN,NaN, NaN, NaN
20060221,002638,1476090,35.624800,-121.293200,NaN,11.910,33.490,38.360,  NaN,NaN,0.584, NaN, NaN,13.300, NaN,   NaN,10.70,1022.01,66.20,NaN,37.0,NaN,12.4,NaN,294.3,NaN,24.1,NaN,NaN,0.584,NaN,240.0,NaN,NaN,NaN,2,9.4,002636,   NaN,243.7,     NaN,      NaN,NaN,12.5,NaN, NaN,0.325,NaN,NaN, NaN, NaN
20060221,002708,1476120,35.624300,-121.294700,NaN,11.900,33.500,38.370,  NaN,NaN,0.572, NaN, NaN,13.300, NaN,   NaN,10.70,1021.91,67.10,NaN,38.0,NaN,11.6,NaN,296.3,NaN,22.6,NaN,NaN,0.572,NaN,241.0,NaN,NaN,NaN,2,9.4,002706,   NaN,243.4,     NaN,      NaN,NaN,12.5,NaN, NaN,0.349,NaN,NaN, NaN, NaN
20060221,002738,1476150,35.623700,-121.296000,NaN,11.890,33.500,38.360,  NaN,NaN,0.597, NaN, NaN,13.300, NaN,   NaN,10.70,1022.05,66.30,NaN,45.0,NaN,12.2,NaN,303.4,NaN,23.7,NaN,NaN,0.597,NaN,239.0,NaN,NaN,NaN,2,9.5,002736,   NaN,241.9,     NaN,      NaN,NaN,12.6,NaN, NaN,0.398,NaN,NaN, NaN, NaN
20060221,002808,1476180,35.623000,-121.297500,NaN,11.960,33.460,38.380,  NaN,NaN,0.561, NaN, NaN,13.300, NaN,   NaN,10.70,1022.03,66.60,NaN,38.0,NaN,12.0,NaN,294.3,NaN,23.2,NaN,NaN,0.561,NaN,240.0,NaN,NaN,NaN,2,9.4,002806,   NaN,241.9,     NaN,      NaN,NaN,12.6,NaN, NaN,0.266,NaN,NaN, NaN, NaN
20060221,002838,1476210,35.622300,-121.298800,NaN,11.970,33.500,38.420,  NaN,NaN,0.565, NaN, NaN,13.300, NaN,   NaN,10.70,1022.08,67.70,NaN,42.0,NaN,12.7,NaN,298.1,NaN,24.6,NaN,NaN,0.565,NaN,239.0,NaN,NaN,NaN,2,9.6,002836,   NaN,241.0,     NaN,      NaN,NaN,12.6,NaN, NaN,0.749,NaN,NaN, NaN, NaN
20060221,002908,1476240,35.621700,-121.300200,NaN,11.920,33.510,38.400,  NaN,NaN,0.616, NaN, NaN,13.300, NaN,   NaN,10.70,1022.02,66.60,NaN,39.0,NaN,11.7,NaN,296.0,NaN,22.8,NaN,NaN,0.616,NaN,240.0,NaN,NaN,NaN,2,9.5,002906,   NaN,241.8,     NaN,      NaN,NaN,12.7,NaN, NaN,0.808,NaN,NaN, NaN, NaN
20060221,002938,1476270,35.621000,-121.301700,NaN,11.930,33.500,38.390,  NaN,NaN,0.573, NaN, NaN,13.300, NaN,   NaN,10.70,1022.08,65.10,NaN,42.0,NaN,12.7,NaN,299.1,NaN,24.7,NaN,NaN,0.573,NaN,239.0,NaN,NaN,NaN,2,9.5,002936,   NaN,242.2,     NaN,      NaN,NaN,12.7,NaN, NaN,1.114,NaN,NaN, NaN, NaN
20060221,003008,1476300,35.620300,-121.303000,NaN,11.920,33.510,38.390,  NaN,NaN,0.839, NaN, NaN,13.300, NaN,   NaN,10.70,1021.92,65.80,NaN,33.0,NaN,10.6,NaN,290.4,NaN,20.5,NaN,NaN,0.839,NaN,240.0,NaN,NaN,NaN,2,9.6,003006,   NaN,242.6,     NaN,      NaN,NaN,12.7,NaN, NaN,6.956,NaN,NaN, NaN, NaN
20060221,003038,1476330,35.619700,-121.304500,NaN,11.910,33.510,38.380,  NaN,NaN,0.626, NaN, NaN,13.300, NaN,   NaN,10.70,1021.97,64.60,NaN,35.0,NaN,11.5,NaN,291.7,NaN,22.4,NaN,NaN,0.626,NaN,240.0,NaN,NaN,NaN,2,9.6,003036,   NaN,242.5,     NaN,      NaN,NaN,12.8,NaN, NaN,1.816,NaN,NaN, NaN, NaN
20060221,003108,1476360,35.619000,-121.305800,NaN,11.880,33.510,38.350,  NaN,NaN,0.574, NaN, NaN,13.300, NaN,   NaN,10.70,1021.98,66.60,NaN,41.0,NaN,11.8,NaN,298.1,NaN,22.9,NaN,NaN,0.574,NaN,239.0,NaN,NaN,NaN,2,9.5,003106,   NaN,241.3,     NaN,      NaN,NaN,12.7,NaN, NaN,0.648,NaN,NaN, NaN, NaN
20060221,003138,1476390,35.618300,-121.307300,NaN,11.900,33.490,38.360,  NaN,NaN,0.567, NaN, NaN,13.300, NaN,   NaN,10.70,1021.99,66.00,NaN,38.0,NaN,12.5,NaN,294.0,NaN,24.3,NaN,NaN,0.567,NaN,240.0,NaN,NaN,NaN,2,9.6,003136,   NaN,241.9,     NaN,      NaN,NaN,12.6,NaN, NaN,0.385,NaN,NaN, NaN, NaN
20060221,003208,1476420,35.617700,-121.308700,NaN,11.910,33.500,38.370,  NaN,NaN,0.534, NaN, NaN,13.300, NaN,   NaN,10.70,1022.03,65.80,NaN,39.0,NaN,11.8,NaN,296.4,NaN,23.0,NaN,NaN,0.534,NaN,240.0,NaN,NaN,NaN,2,9.5,003206,   NaN,242.3,     NaN,      NaN,NaN,12.6,NaN, NaN,0.307,NaN,NaN, NaN, NaN
20060221,003238,1476450,35.617000,-121.310200,NaN,11.860,33.520,38.350,  NaN,NaN,0.638, NaN, NaN,13.300, NaN,   NaN,10.70,1021.91,62.50,NaN,43.0,NaN,12.5,NaN,301.1,NaN,24.3,NaN,NaN,0.638,NaN,241.0,NaN,NaN,NaN,2,9.6,003236,   NaN,242.5,     NaN,      NaN,NaN,12.6,NaN, NaN,2.959,NaN,NaN, NaN, NaN
20060221,003308,1476480,35.616300,-121.311500,NaN,11.820,33.520,38.310,  NaN,NaN,0.576, NaN, NaN,13.300, NaN,   NaN,10.70,1022.01,63.10,NaN,40.0,NaN,12.1,NaN,297.1,NaN,23.4,NaN,NaN,0.576,NaN,239.0,NaN,NaN,NaN,2,9.8,003306,   NaN,241.5,     NaN,      NaN,NaN,12.7,NaN, NaN,1.403,NaN,NaN, NaN, NaN
20060221,003338,1476510,35.615700,-121.313000,NaN,11.830,33.500,38.300,  NaN,NaN,0.569, NaN, NaN,13.300, NaN,   NaN,10.70,1021.98,63.60,NaN,40.0,NaN,11.4,NaN,298.1,NaN,22.2,NaN,NaN,0.569,NaN,239.0,NaN,NaN,NaN,2,9.7,003336,   NaN,241.8,     NaN,      NaN,NaN,12.7,NaN, NaN,0.636,NaN,NaN, NaN, NaN
20060221,003408,1476540,35.615000,-121.314300,NaN,11.860,33.500,38.330,  NaN,NaN,1.064, NaN, NaN,13.000, NaN,   NaN,10.70,1022.01,65.10,NaN,41.0,NaN,12.7,NaN,297.4,NaN,24.6,NaN,NaN,1.064,NaN,239.0,NaN,NaN,NaN,2,9.7,003406,   NaN,241.4,     NaN,      NaN,NaN,12.7,NaN, NaN,14.760,NaN,NaN, NaN, NaN
20060221,003438,1476570,35.614300,-121.315800,NaN,11.890,33.500,38.360,  NaN,NaN,0.550, NaN, NaN,13.300, NaN,   NaN,10.70,1021.93,61.80,NaN,40.0,NaN,12.2,NaN,296.8,NaN,23.8,NaN,NaN,0.550,NaN,240.0,NaN,NaN,NaN,2,9.7,003436,   NaN,241.6,     NaN,      NaN,NaN,12.5,NaN, NaN,0.780,NaN,NaN, NaN, NaN
20060221,003508,1476600,35.613700,-121.317200,NaN,11.910,33.500,38.380,  NaN,NaN,0.514, NaN, NaN,13.300, NaN,   NaN,10.70,1022.04,63.90,NaN,41.0,NaN,12.6,NaN,298.9,NaN,24.4,NaN,NaN,0.514,NaN,239.0,NaN,NaN,NaN,2,9.7,003506,   NaN,242.8,     NaN,      NaN,NaN,12.5,NaN, NaN,1.372,NaN,NaN, NaN, NaN
20060221,003538,1476630,35.613000,-121.318700,NaN,11.970,33.500,38.420,  NaN,NaN,0.870, NaN, NaN,13.300, NaN,   NaN,10.70,1021.96,64.30,NaN,36.0,NaN,12.4,NaN,293.2,NaN,24.2,NaN,NaN,0.870,NaN,240.0,NaN,NaN,NaN,2,9.8,003536,   NaN,243.4,     NaN,      NaN,NaN,12.6,NaN, NaN,9.766,NaN,NaN, NaN, NaN
20060221,003608,1476660,35.612300,-121.320200,NaN,11.950,33.510,38.430,  NaN,NaN,0.714, NaN, NaN,13.400, NaN,   NaN,10.70,1022.00,64.80,NaN,40.0,NaN,12.1,NaN,297.4,NaN,23.4,NaN,NaN,0.714,NaN,238.0,NaN,NaN,NaN,2,9.8,003606,   NaN,241.8,     NaN,      NaN,NaN,12.7,NaN, NaN,6.204,NaN,NaN, NaN, NaN
20060221,003638,1476690,35.611700,-121.321500,NaN,11.940,33.520,38.420,  NaN,NaN,0.571, NaN, NaN,13.300, NaN,   NaN,10.70,1021.96,61.30,NaN,47.0,NaN,12.4,NaN,304.9,NaN,24.0,NaN,NaN,0.571,NaN,238.0,NaN,NaN,NaN,2,9.8,003636,   NaN,240.5,     NaN,      NaN,NaN,12.6,NaN, NaN,2.381,NaN,NaN, NaN, NaN
20060221,003708,1476720,35.610800,-121.323000,NaN,11.940,33.510,38.410,  NaN,NaN,0.471, NaN, NaN,13.300, NaN,   NaN,10.70,1021.94,64.90,NaN,36.0,NaN,12.0,NaN,291.6,NaN,23.3,NaN,NaN,0.471,NaN,240.0,NaN,NaN,NaN,2,9.7,003706,   NaN,241.4,     NaN,      NaN,NaN,12.8,NaN, NaN,0.248,NaN,NaN, NaN, NaN
20060221,003738,1476750,35.610200,-121.324500,NaN,11.950,33.510,38.420,  NaN,NaN,0.514, NaN, NaN,13.400, NaN,   NaN,10.70,1021.86,64.10,NaN,43.0,NaN,13.0,NaN,300.6,NaN,25.2,NaN,NaN,0.514,NaN,241.0,NaN,NaN,NaN,2,9.6,003736,   NaN,242.6,     NaN,      NaN,NaN,12.6,NaN, NaN,0.623,NaN,NaN, NaN, NaN
20060221,003808,1476780,35.609500,-121.325800,NaN,11.920,33.520,38.410,  NaN,NaN,0.498, NaN, NaN,13.300, NaN,   NaN,10.70,1022.00,66.60,NaN,38.0,NaN,10.6,NaN,298.3,NaN,20.7,NaN,NaN,0.498,NaN,240.0,NaN,NaN,NaN,2,9.6,003806,   NaN,243.7,     NaN,      NaN,NaN,12.5,NaN, NaN,0.247,NaN,NaN, NaN, NaN
20060221,003838,1476810,35.609000,-121.327300,NaN,11.920,33.520,38.400,  NaN,NaN,0.522, NaN, NaN,13.300, NaN,   NaN,10.70,1022.08,65.90,NaN,39.0,NaN,10.0,NaN,299.6,NaN,19.5,NaN,NaN,0.522,NaN,241.0,NaN,NaN,NaN,2,9.6,003836,   NaN,242.5,     NaN,      NaN,NaN,12.6,NaN, NaN,0.314,NaN,NaN, NaN, NaN
20060221,003908,1476840,35.608300,-121.328700,NaN,11.930,33.510,38.400,  NaN,NaN,0.536, NaN, NaN,13.400, NaN,   NaN,10.70,1022.08,67.30,NaN,41.0,NaN,13.3,NaN,298.4,NaN,25.8,NaN,NaN,0.536,NaN,240.0,NaN,NaN,NaN,2,9.7,003906,   NaN,243.1,     NaN,      NaN,NaN,12.7,NaN, NaN,0.307,NaN,NaN, NaN, NaN
20060221,003938,1476870,35.607700,-121.330200,NaN,11.920,33.520,38.400,  NaN,NaN,0.602, NaN, NaN,13.300, NaN,   NaN,10.80,1021.98,69.20,NaN,43.0,NaN,11.6,NaN,302.9,NaN,22.6,NaN,NaN,0.602,NaN,240.0,NaN,NaN,NaN,2,9.7,003936,   NaN,242.9,     NaN,      NaN,NaN,12.8,NaN, NaN,1.466,NaN,NaN, NaN, NaN